User: anonymous   Login
Location: Unspecified
(0.0000°N, 0.0000°E)
Time: 20:30:15
(UTC+00:00)
Language:

USA 255 - Orbit

View from above orbital plane
View from above orbital plane
View from above satellite
View from above satellite

Ground track
Ground track

The orbit data is extracted from the following two-line orbital elements,

1 40101U 14043C   21136.59076448 -.00000041  00000-0  00000-0 0  9990
2 40101   4.8511  72.2067 0014128 291.6276 289.0380  0.98726141  6969
Epoch (UTC): 16 May 2021 14:10:42
Eccentricity: 0.0014128
inclination: 4.8511°
perigee height: 36165 km
apogee height: 36285 km
right ascension of ascending node: 72.2067°
argument of perigee: 291.6276°
revolutions per day: 0.98726141
mean anomaly at epoch: 289.0380°
orbit number at epoch: 696

The dashed part of the orbit path shows where the satellite is in the earth's shadow,  

DLR